Wind_Speed
50 54 56 59 60 61 65 69 73 73 72 69 68 65 61 59 56 50 45 42 39 38 38 39 42 43 43 41 38 35 32 30 28 27 26 25 23 23 23 25 29 32 35 37
54 57 61 65 65 67 72 74 74 74 69 64 61 57 54 53 50 44 41 38 36 35 36 38 40 41 41 39 37 34 32 30 28 27 26 24 22 22 22 23 24 26 29 31
58 61 65 66 70 72 75 73 72 70 63 60 56 53 52 51 47 42 39 36 35 34 35 37 38 40 40 39 37 34 32 31 28 27 26 24 22 21 20 21 22 24 25 28
62 66 65 71 72 74 74 68 68 62 58 55 53 51 50 48 43 40 37 34 33 33 35 36 38 40 40 39 38 35 33 31 29 28 26 24 23 21 20 20 21 23 24 26
64 67 68 74 74 73 72 64 64 58 53 50 49 47 44 41 39 37 35 34 34 34 36 37 39 40 41 40 38 36 34 32 30 29 28 26 24 22 21 21 22 23 24 25
65 68 71 76 75 72 69 58 56 51 49 49 48 47 43 40 38 36 35 34 34 35 36 38 40 41 42 41 40 38 36 34 32 31 30 29 27 25 24 24 24 24 25 26
67 69 72 76 74 70 61 57 53 48 48 47 46 45 43 41 39 38 36 36 36 36 37 39 41 42 42 42 41 40 38 36 34 33 32 31 30 29 28 28 28 28 28 28
68 70 71 74 70 64 56 50 48 48 48 46 44 43 41 40 39 38 37 37 37 38 39 41 43 44 44 44 43 41 39 38 36 34 33 33 32 32 32 32 32 32 32 33
68 70 72 70 64 57 51 47 46 46 46 45 43 42 41 40 39 39 39 39 39 40 42 44 45 46 45 45 44 42 40 38 37 36 35 34 34 34 33 34 35 36 37 37
69 71 70 67 61 53 48 46 46 47 46 44 43 42 41 40 40 40 40 41 42 43 45 47 48 48 47 47 46 44 42 40 38 37 36 36 35 35 36 36 37 38 39 41
69 72 70 65 59 51 46 45 46 47 46 44 42 41 41 41 41 42 43 44 46 47 49 49 50 49 49 49 48 47 45 43 41 40 39 38 38 38 38 38 39 40 41 43
70 72 69 63 56 49 45 45 46 46 45 42 41 41 42 43 44 45 46 48 49 51 52 52 52 52 52 52 51 50 48 47 46 45 44 43 43 43 42 42 42 43 44 45
70 70 65 59 52 48 45 45 45 45 43 41 40 41 43 45 46 48 50 52 53 54 55 55 55 55 55 55 55 54 53 52 51 51 50 50 50 49 49 49 49 49 49 50
71 69 62 55 49 46 44 44 43 43 41 40 41 43 45 47 50 52 53 55 56 56 57 58 58 59 59 58 58 57 57 56 56 55 55 55 56 56 57 57 57 57 58 58
69 64 58 52 47 45 43 42 41 40 40 41 43 45 47 50 53 55 55 56 57 58 59 60 59 59 58 57 56 55 54 53 52 52 52 52 53 54 56 57 59 60 62 64
65 58 52 47 44 42 40 39 39 39 40 43 45 48 51 53 55 55 56 57 58 59 58 56 55 53 51 50 49 48 47 46 45 43 42 42 42 42 43 45 47 50 54 57
59 52 46 42 40 39 37 37 38 40 42 45 48 51 53 54 54 56 58 58 57 54 51 48 47 45 45 44 43 43 42 41 39 38 37 36 35 34 33 33 33 34 37 39
53 46 40 38 37 36 36 37 39 42 45 48 50 52 53 53 55 57 56 52 48 44 42 42 41 41 42 42 42 42 42 41 40 39 38 37 36 35 33 32 31 30 30 30
45 39 36 35 35 36 37 40 42 45 48 50 51 52 53 55 56 52 46 41 38 37 37 38 39 41 42 43 44 44 44 44 43 42 41 39 38 36 35 34 33 32 31 30
38 34 33 34 35 38 40 43 45 48 49 50 51 52 54 53 48 40 35 34 33 34 35 37 40 42 44 45 46 47 47 46 45 44 42 41 40 39 38 36 35 34 33 32
34 32 33 34 37 40 43 45 47 48 49 50 51 53 51 44 36 32 30 30 31 34 36 39 41 44 46 47 49 49 49 49 48 47 45 44 43 42 41 39 37 35 34 33
32 32 33 36 39 41 44 47 48 48 49 51 51 48 41 33 28 26 27 29 32 35 38 41 43 46 48 50 51 52 52 52 51 51 50 49 48 46 43 41 38 35 33 31
31 32 34 37 40 42 45 47 47 48 49 50 47 39 32 26 23 24 27 29 32 36 39 42 45 47 50 52 54 55 56 56 57 56 54 52 50 48 45 42 37 33 30 28
31 33 35 38 40 43 45 46 47 48 48 46 39 31 23 21 22 23 27 30 33 37 40 43 46 49 51 54 56 58 60 60 60 58 56 54 52 50 47 43 37 32 27 24
31 33 36 38 41 43 45 45 46 47 45 39 30 22 18 19 21 24 27 31 34 37 40 43 46 49 52 55 58 60 62 62 61 60 58 55 53 51 48 44 38 32 26 21
32 34 36 38 40 42 44 44 44 43 39 31 22 17 16 18 22 25 28 31 34 37 39 42 45 49 52 55 58 61 62 62 62 60 59 57 55 53 51 47 42 36 30 24
32 34 36 38 40 41 42 42 42 38 31 22 16 14 16 18 22 25 28 31 33 36 39 42 45 48 52 55 57 60 62 62 63 63 63 62 61 58 55 52 48 44 40 35
Wind_Direction
329 328 327 324 322 321 319 319 320 319 319 319 317 316 316 314 314 315 314 312 312 314 317 322 325 328 331 332 333 331 327 323 320 318 315 313 303 289 279 269 260 255 252 250
329 328 327 325 324 323 320 321 320 320 322 319 318 318 318 316 317 317 315 314 316 318 322 325 328 330 331 331 330 328 325 322 319 317 316 314 308 299 285 273 261 254 252 251
329 328 327 324 326 324 322 323 322 323 323 321 322 323 323 322 322 321 318 317 319 321 324 327 330 331 331 330 328 325 322 320 317 314 313 312 309 302 291 277 264 255 250 248
329 328 327 326 325 323 323 325 323 324 324 325 326 326 324 323 323 321 318 318 319 320 323 327 329 330 330 329 327 323 319 316 314 311 309 307 305 301 292 280 268 256 249 246
328 327 326 324 327 326 325 327 326 327 327 327 325 325 324 324 324 323 321 321 321 322 324 326 328 329 329 328 326 322 318 313 310 307 304 302 300 296 289 282 274 264 255 249
328 326 326 326 327 327 327 328 328 328 327 326 326 327 329 329 329 328 326 325 324 323 324 325 326 328 328 327 325 322 318 313 309 304 300 297 294 290 286 281 276 271 264 258
328 327 326 327 328 328 329 330 329 329 329 329 329 329 330 330 330 329 328 326 325 325 325 325 326 327 327 326 325 322 319 316 310 305 300 295 291 286 283 279 275 271 267 263
328 328 327 328 328 329 330 329 328 329 330 330 330 330 329 329 329 329 328 327 326 325 325 326 326 326 326 326 324 321 319 316 312 307 301 296 291 287 282 277 274 271 267 264
328 328 328 328 328 329 328 328 329 331 331 331 331 330 330 329 329 329 328 327 326 326 326 325 325 325 325 325 323 320 317 314 311 308 304 298 292 287 283 278 274 271 268 265
329 329 329 328 329 329 329 329 331 333 332 332 331 331 331 330 330 329 328 327 326 325 325 324 324 324 324 323 321 319 316 312 309 306 303 299 294 289 283 279 275 271 268 265
329 329 329 329 330 330 330 329 330 332 332 331 330 331 331 331 330 329 328 327 326 325 324 324 323 323 322 321 319 317 314 311 307 303 300 297 294 289 285 280 276 272 268 265
329 330 330 331 331 330 330 329 330 331 332 332 331 331 331 331 331 330 328 327 326 325 324 323 323 322 320 319 317 314 311 308 305 301 297 294 291 288 285 281 277 273 269 266
329 331 331 332 332 330 329 329 330 332 333 332 332 331 332 332 331 330 328 327 326 325 324 323 322 321 319 317 314 311 308 305 301 298 294 291 288 285 282 280 277 274 270 267
330 331 332 332 331 330 329 330 330 332 332 332 332 332 332 331 331 330 328 327 326 325 324 323 321 320 318 316 313 311 308 305 302 298 294 291 287 284 281 278 275 273 271 269
331 332 333 334 333 332 332 332 332 333 333 333 333 332 331 331 330 329 329 328 327 326 324 323 322 321 320 318 317 315 313 310 307 304 300 296 292 288 284 281 277 274 271 269
331 333 334 335 335 335 334 333 334 334 334 333 333 332 331 330 330 330 329 329 328 327 327 327 327 327 327 327 327 326 325 323 321 319 316 313 308 303 298 293 287 282 278 274
332 333 335 335 336 337 336 336 336 335 334 334 333 332 332 332 332 331 331 330 331 332 334 337 338 340 341 342 343 343 342 342 341 340 339 336 333 329 324 319 312 305 297 290
332 334 338 340 342 341 339 338 337 336 335 334 333 333 333 333 333 333 333 335 339 343 347 351 353 355 357 357 357 356 355 354 352 351 349 347 346 344 341 338 334 330 325 318
333 336 340 342 343 342 340 339 338 336 335 334 334 335 335 335 335 337 341 347 353 358 1 5 6 7 6 4 2 0 359 357 355 353 351 349 347 345 343 340 338 337 336 334
332 336 339 340 340 340 339 338 337 336 336 336 336 336 336 337 340 347 355 1 7 11 14 14 13 11 9 7 4 3 1 358 356 354 351 349 346 343 340 337 334 332 332 332
330 333 335 336 337 337 337 337 337 337 337 337 337 338 340 344 351 360 8 14 18 19 18 16 14 13 11 9 7 5 3 0 358 356 354 351 347 343 338 334 330 327 325 325
327 330 332 333 334 335 336 337 337 338 338 338 339 342 346 354 3 13 20 22 21 20 18 17 16 14 12 11 9 7 5 4 2 360 357 354 350 345 340 334 329 324 321 319
324 327 329 331 332 334 335 337 338 338 339 340 343 348 356 7 18 23 23 23 22 20 19 18 17 16 15 14 12 10 9 8 6 4 0 357 354 350 346 341 335 329 324 321
323 326 328 330 332 334 336 337 338 339 341 343 348 356 8 21 26 25 23 23 22 20 19 18 17 17 16 16 15 14 13 11 9 7 5 2 0 358 355 352 347 341 336 332
322 325 328 330 332 334 336 338 339 341 344 347 356 9 24 29 27 25 24 23 21 20 19 18 18 18 17 17 17 17 16 15 13 12 11 10 9 8 7 5 3 1 356 350
321 325 327 329 332 335 337 339 341 344 347 354 7 24 32 29 26 26 25 23 22 21 20 19 19 19 19 19 20 20 19 18 17 18 18 19 18 18 19 20 20 21 21 21
321 324 326 329 332 335 338 340 343 346 352 4 23 36 34 29 27 26 25 23 22 21 20 19 20 20 20 21 22 22 22 21 21 22 25 26 26 27 28 30 33 36 41 45
Height
5748 5739 5730 5721 5712 5703 5690 5676 5665 5653 5640 5626 5612 5600 5590 5579 5570 5563 5555 5548 5542 5537 5531 5524 5517 5509 5501 5493 5485 5478 5471 5466 5461 5457 5453 5449 5447 5446 5446 5447 5449 5452 5456 5460
5741 5731 5721 5711 5701 5690 5676 5663 5650 5636 5627 5613 5600 5589 5579 5568 5560 5553 5546 5540 5534 5529 5523 5517 5510 5502 5495 5487 5480 5474 5468 5462 5457 5453 5449 5445 5442 5441 5440 5440 5441 5444 5447 5450
5731 5720 5711 5699 5689 5676 5661 5647 5633 5622 5612 5598 5589 5579 5568 5558 5551 5544 5538 5532 5527 5522 5516 5510 5503 5496 5489 5482 5475 5469 5463 5458 5453 5449 5445 5441 5438 5436 5435 5435 5435 5436 5439 5441
5719 5709 5699 5689 5677 5663 5649 5636 5621 5611 5599 5587 5577 5569 5560 5551 5544 5538 5531 5526 5521 5515 5510 5503 5496 5489 5482 5476 5469 5463 5458 5453 5448 5444 5440 5437 5434 5432 5430 5430 5430 5430 5431 5433
5706 5696 5687 5674 5663 5648 5636 5625 5608 5599 5589 5580 5571 5565 5557 5547 5539 5532 5526 5520 5514 5508 5502 5496 5490 5483 5476 5469 5463 5457 5451 5446 5442 5438 5434 5431 5429 5427 5425 5424 5424 5424 5424 5425
5695 5683 5674 5662 5650 5634 5622 5614 5601 5590 5581 5572 5563 5555 5549 5540 5533 5526 5520 5514 5508 5502 5496 5490 5483 5476 5469 5462 5456 5449 5444 5439 5435 5431 5427 5424 5422 5420 5418 5417 5417 5416 5416 5417
5686 5673 5662 5649 5636 5623 5614 5603 5591 5583 5575 5565 5556 5548 5541 5533 5527 5520 5514 5508 5502 5496 5490 5484 5477 5470 5462 5455 5449 5442 5436 5431 5426 5422 5419 5416 5414 5412 5410 5409 5408 5408 5408 5408
5675 5664 5654 5637 5624 5614 5606 5594 5584 5575 5567 5558 5551 5543 5536 5529 5522 5515 5509 5503 5496 5490 5484 5477 5470 5463 5455 5448 5441 5434 5428 5423 5418 5413 5410 5406 5404 5402 5400 5399 5398 5398 5398 5398
5668 5657 5641 5626 5614 5604 5595 5587 5579 5571 5562 5554 5546 5538 5531 5524 5517 5510 5503 5496 5490 5483 5477 5469 5462 5455 5447 5440 5433 5426 5420 5414 5409 5404 5400 5396 5393 5391 5389 5388 5387 5386 5386 5386
5659 5647 5634 5621 5608 5598 5589 5580 5572 5563 5555 5548 5540 5533 5525 5518 5511 5504 5497 5490 5483 5476 5469 5461 5454 5446 5438 5431 5423 5417 5411 5405 5400 5395 5390 5386 5382 5380 5377 5375 5374 5373 5372 5372
5651 5639 5626 5613 5601 5591 5583 5574 5566 5558 5550 5542 5535 5527 5520 5513 5506 5499 5491 5484 5476 5468 5460 5452 5444 5436 5428 5421 5413 5407 5400 5394 5389 5384 5379 5375 5371 5367 5364 5362 5359 5358 5357 5356
5642 5628 5615 5604 5592 5584 5576 5569 5561 5553 5545 5537 5529 5522 5515 5508 5500 5492 5484 5476 5468 5460 5451 5442 5433 5425 5417 5409 5402 5395 5388 5382 5376 5371 5366 5361 5357 5353 5349 5346 5344 5342 5340 5339
5632 5618 5606 5595 5585 5577 5569 5562 5554 5547 5539 5532 5524 5517 5510 5502 5494 5486 5477 5468 5459 5450 5441 5431 5422 5414 5405 5396 5388 5381 5373 5367 5360 5354 5349 5344 5339 5336 5332 5329 5325 5323 5322 5320
5623 5611 5600 5589 5580 5571 5564 5556 5549 5541 5534 5527 5519 5512 5504 5496 5488 5479 5469 5460 5450 5440 5430 5420 5411 5401 5391 5382 5373 5364 5356 5348 5340 5334 5328 5322 5317 5313 5309 5307 5304 5301 5299 5298
5613 5601 5591 5581 5573 5565 5557 5550 5543 5536 5529 5522 5514 5507 5498 5490 5480 5471 5461 5451 5441 5430 5420 5409 5398 5388 5377 5367 5357 5347 5338 5329 5321 5313 5306 5300 5294 5289 5285 5281 5278 5276 5274 5273
5605 5594 5584 5575 5567 5559 5552 5545 5538 5531 5524 5517 5509 5501 5492 5483 5473 5462 5452 5442 5431 5420 5409 5398 5387 5376 5366 5355 5345 5334 5324 5315 5306 5297 5290 5282 5275 5269 5264 5259 5255 5251 5248 5246
5599 5589 5580 5572 5563 5555 5547 5541 5534 5527 5520 5512 5503 5494 5485 5475 5465 5454 5443 5432 5421 5410 5400 5389 5379 5368 5358 5348 5337 5327 5317 5307 5298 5289 5280 5273 5265 5258 5251 5245 5239 5234 5229 5225
5591 5582 5574 5566 5558 5551 5544 5537 5530 5522 5515 5506 5497 5488 5478 5468 5458 5447 5436 5424 5414 5404 5394 5385 5375 5365 5355 5345 5335 5325 5314 5304 5295 5285 5276 5268 5260 5252 5245 5238 5231 5225 5219 5213
5585 5577 5570 5562 5555 5548 5541 5533 5526 5518 5510 5501 5491 5482 5471 5461 5450 5440 5429 5420 5411 5403 5394 5384 5375 5365 5355 5345 5335 5324 5313 5303 5293 5283 5273 5264 5256 5248 5240 5233 5226 5219 5212 5206
5581 5573 5566 5559 5553 5545 5538 5530 5522 5514 5505 5495 5486 5476 5466 5455 5445 5435 5427 5420 5412 5404 5396 5387 5377 5368 5357 5347 5336 5324 5313 5301 5291 5280 5270 5261 5251 5242 5234 5226 5219 5212 5205 5199
5576 5570 5563 5556 5550 5542 5535 5526 5518 5509 5500 5490 5481 5471 5460 5451 5442 5435 5428 5421 5414 5406 5398 5389 5380 5370 5359 5348 5336 5324 5312 5300 5289 5277 5266 5255 5245 5235 5226 5217 5210 5203 5197 5191
5572 5566 5559 5553 5546 5539 5531 5522 5513 5504 5495 5486 5476 5466 5456 5449 5442 5436 5430 5424 5417 5409 5401 5392 5382 5372 5361 5349 5337 5325 5312 5299 5286 5273 5261 5249 5237 5227 5217 5207 5199 5192 5187 5182
5567 5562 5556 5549 5542 5534 5526 5518 5509 5500 5491 5481 5472 5463 5455 5449 5444 5439 5433 5427 5420 5412 5404 5395 5385 5375 5364 5352 5339 5326 5313 5298 5284 5270 5257 5244 5232 5219 5208 5197 5189 5181 5176 5172
5563 5557 5552 5545 5538 5530 5522 5513 5505 5496 5487 5478 5469 5462 5456 5451 5447 5442 5436 5430 5423 5416 5407 5399 5389 5378 5367 5355 5343 5329 5313 5299 5284 5271 5256 5242 5229 5215 5202 5191 5181 5173 5168 5164
5558 5553 5547 5541 5533 5526 5518 5509 5501 5492 5483 5475 5468 5462 5458 5454 5451 5446 5440 5434 5427 5420 5412 5403 5393 5383 5372 5360 5346 5332 5318 5303 5288 5274 5259 5245 5231 5217 5203 5190 5178 5170 5163 5159
5554 5549 5543 5536 5529 5522 5514 5505 5497 5489 5481 5474 5468 5464 5461 5458 5454 5449 5444 5438 5431 5424 5416 5408 5398 5388 5377 5365 5352 5338 5325 5311 5298 5283 5267 5252 5237 5222 5208 5195 5183 5173 5165 5159
5549 5544 5538 5532 5525 5518 5510 5502 5495 5487 5480 5474 5470 5467 5465 5461 5457 5453 5447 5442 5435 5428 5421 5412 5403 5393 5382 5371 5358 5346 5333 5320 5306 5291 5275 5259 5245 5231 5217 5205 5194 5184 5175 5168